Simultaneous Nadir Overpasses (SNOs) Predictions

Prediction of SNOs between GOES-15 and NOAA-20 Satellite Orbit:

Table of predicted SNOs for the next 14.0 days since TLE Epoch: 12/10/2022
Index Date Time (GOES-15) GOES-15 Lat,Lon NOAA-20 Lat,Lon Distance(km) Time Diff (sec)
1 12/11/2022 21:55:34 -0.02,-127.56 -0.12,-127.99 50.10 80
2 12/12/2022 21:39:31 -0.03,-127.52 0.91,-123.47 461.84 80
3 12/14/2022 09:58:40 0.01,-127.52 0.27,-128.75 139.35 80
4 12/15/2022 09:42:36 0.02,-127.48 -0.71,-124.21 372.33 80
5 12/16/2022 22:01:53 -0.00,-127.35 -0.49,-129.51 247.13 80
6 12/17/2022 21:45:49 -0.01,-127.30 0.49,-124.98 264.45 80
7 12/19/2022 10:04:58 -0.00,-127.30 0.68,-130.25 337.14 80
8 12/20/2022 09:48:54 0.01,-127.25 -0.36,-125.73 173.92 80
9 12/21/2022 22:08:11 0.00,-127.10 -0.89,-131.02 447.05 80
10 12/22/2022 21:52:06 -0.01,-127.05 0.09,-126.49 63.51 80
